Regional Weather Roundup
Issued by NWS

Home | Current Version | Previous Version | Graphics & Text | Print | Product List | Glossary On
Versions: 1 2 3 4 5 6 7 8 9 10 11 12 13 14 15 16 17 18 19 20 21 22 23 24 25 26 27 28 29 30 31 32 33 34 35 36 37 38 39 40 41 42 43 44 45 46 47 48 49 50
000
ASUS43 KMKX 102210
RWRWI

WISCONSIN REGIONAL WEATHER ROUNDUP
NATIONAL WEATHER SERVICE MILWAUKEE/SULLIVAN WI
400 PM CST SUN DEC 10 2017

NOTE: "FAIR" INDICATES FEW OR NO CLOUDS BELOW 12,000 FEET WITH NO
SIGNIFICANT WEATHER AND/OR OBSTRUCTIONS TO VISIBILITY.

WIZ001-002-006>008-014>016-023>028-102300-
NORTHWEST WISCONSIN

CITY           SKY/WX    TMP DP  RH WIND       PRES   REMARKS
SUPERIOR ARPT  CLEAR     21  12  68 N6        30.04R WCI  14
ASHLAND        CLOUDY    19  10  68 N6        30.03R WCI  11
HAYWARD        CLOUDY    21  12  68 CALM      30.01R
SIREN          MOCLDY    26  16  66 N5        30.03R WCI  20
CUMBERLAND     CLOUDY    23  16  74 N5        30.00R WCI  17
RICE LAKE      CLOUDY    25  17  70 CALM      30.02R
CHETEK         CLOUDY    25  17  73 NW3       30.01R
LADYSMITH      CLOUDY    23  17  76 NW9       30.01R WCI  13
EAU CLAIRE     CLOUDY    26  18  71 NW3       30.01R
MENOMONIE      CLOUDY    29  20  67 NW6       30.02R WCI  23
NEW RICHMOND   CLOUDY    27  19  71 NW5       30.02R WCI  22
OSCEOLA        CLOUDY    28  19  70 NW5       30.05R WCI  22
$$

WIZ003>005-009-010-017-018-102300-
NORTH CENTRAL WISCONSIN

CITY           SKY/WX    TMP DP  RH WIND       PRES   REMARKS
MANITOWISH WTR LGT SNOW  17  15  91 N6        29.94R WCI   9
ARBOR VITAE    FLURRIES  19  15  84 N8        29.93R WCI   9
WOODRUFF       FLURRIES  19  15  84 N8        29.93R WCI   9
RHINELANDER    FLURRIES  20  15  81 NW6       29.93R WCI  12
EAGLE RIVER    LGT SNOW  18  14  84 N3        29.92R VSB 1
LAND O LAKES   LGT SNOW  17  13  86 NW6       29.93R WCI   8
PHILLIPS       CLOUDY    19  16  88 N6        29.96R WCI  10
TOMAHAWK       CLOUDY    20  16  82 NW7       29.95R WCI  11
MEDFORD        CLOUDY    21  16  79 NW9       29.95R WCI  11
MERRILL        CLOUDY    22  15  75 NW7       29.96R WCI  14
$$

WIZ029-030-035-036-043>047-102300-
CENTRAL WISCONSIN

CITY           SKY/WX    TMP DP  RH WIND       PRES   REMARKS
WAUSAU         CLOUDY    23  17  78 NW12      29.95R WCI  12
MOSINEE        CLOUDY    23  19  86 NW10      29.97R WCI  12
MARSHFIELD     CLOUDY    23  18  81 NW9       29.96R WCI  13
STEVENS POINT  CLOUDY    23  16  76 NW7       29.98R WCI  14
WAUPACA        CLOUDY    28  19  68 NW9       29.98R WCI  19
WAUTOMA        CLOUDY    26  18  71 NW10      29.99R WCI  16
WISC RAPIDS    CLOUDY    25  17  72 NW8       30.00R WCI  16
CAMP DOUGLAS   CLOUDY    27  18  70 NW8       30.00R WCI  18
$$

WIZ011>013-019>022-031-037>040-048>050-102300-
NORTHEAST WISCONSIN

CITY           SKY/WX    TMP DP  RH WIND       PRES   REMARKS
ANTIGO         FLURRIES  20  17  85 N10       29.93R WCI   9
SHAWANO        CLOUDY    28  17  66 N5        29.96R WCI  22
OCONTO         CLOUDY    25  15  65 N5        29.96R WCI  19
STURGEON BAY   FLURRIES  25  16  68 NW14G20   29.94R WCI  13
GREEN BAY      CLOUDY    26  20  77 NW7       29.97R WCI  18
MANITOWOC      CLOUDY    25  17  72 NW9       29.96R WCI  15
APPLETON       CLOUDY    25  18  74 NW8       29.94R WCI  16
CLINTONVILLE   CLOUDY    27  18  69 NW9       29.97R WCI  17
OSHKOSH        CLOUDY    25  18  74 NW7       29.97R WCI  17
$$

WIZ032>034-041-042-053>061-102300-
SOUTHWEST WISCONSIN

CITY           SKY/WX    TMP DP  RH WIND       PRES   REMARKS
LA CROSSE      CLOUDY    29  20  69 NW9       30.03R WCI  20
SPARTA         CLOUDY    27  20  77 NW7       30.02R WCI  19
VIROQUA        CLOUDY    26  21  83 NW8       29.98S WCI  17
BOSCOBEL       CLOUDY    30  20  66 W5        30.03R WCI  25
PRAIRIE DU CHI CLOUDY    31  20  62 NW7       30.04R WCI  24
PLATTEVILLE    CLOUDY    29  23  77 NW10      30.01R WCI  20
$$

WIZ056-057-062-063-064-067-068-102300-
SOUTH CENTRAL WISCONSIN

CITY           SKY/WX    TMP DP  RH WIND       PRES   REMARKS
REEDSBURG      CLOUDY    28  18  68 NW8       29.99R WCI  19
BARABOO/DELLS  CLOUDY    27  18  68 NW8       29.98R WCI  19
LONE ROCK      CLOUDY    29  20  69 NW10      30.01R WCI  20
MINERAL POINT  MIX PCPN  30  25  80 NW9       29.99R WCI  22
MADISON        CLOUDY    28  19  69 NW8       29.97R WCI  20
MIDDLETON      CLOUDY    31  21  67 NW9       29.99R WCI  23
WATERTOWN      CLOUDY    27  21  78 NW5       29.96R WCI  22
MONROE         CLOUDY    30  21  69 NW7       29.97R WCI  23
JANESVILLE     CLOUDY    32  30  93 NW13      29.97R WCI  22
$$

WIZ051-052-058>065-066-070>072-102300-
SOUTHEAST WISCONSIN

CITY           SKY/WX    TMP DP  RH WIND       PRES   REMARKS
MILWAUKEE      MOCLDY    28  19  69 NW10      29.96R WCI  19
WAUKESHA       MOCLDY    25  18  74 NW8       29.97R WCI  16
MILWAUKEE/TIMM MOCLDY    27  18  69 NW12      29.97R WCI  16
RACINE         CLOUDY    28  19  69 NW8       29.97R WCI  20
BURLINGTON     PTCLDY    35  32  86 N6        29.96R WCI  30
KENOSHA        CLOUDY    28  19  69 NW8       29.96R WCI  20
FOND DU LAC    CLOUDY    26  17  68 NW9       29.97R WCI  17
SHEBOYGAN      MOCLDY    25  18  74 NW9       29.96R WCI  15
WEST BEND      CLOUDY    27  21  80 NW8       29.95R WCI  18
JUNEAU         CLOUDY    26  19  74 NW5       29.97R WCI  20
$$

LSZ147-162-102300-
LAKE SUPERIOR

STATION/POSITION TIME  TEMP    WIND        PRES    WAVE
                       AIR SEA DIR/SP/G            HT/PER
                 (UTC) (F)     (DEG/KT/KT) (MB)    (FT/S)
DEVILS ISLAND    2200   21     320/  8/ 10 1018.4R
SAXON HARBOR     2140   22                 1016.3R
$$

LMZ867-665-643>646-102300-
LAKE MICHIGAN

STATION/POSITION TIME  TEMP    WIND        PRES    WAVE
                       AIR SEA DIR/SP/G            HT/PER
                 (UTC) (F)     (DEG/KT/KT) (MB)    (FT/S)
NORTHPORT PIER   2140   25     350/ 20/ 25 1013.5R
KEWAUNEE LAKESHO 2148   26     320/  4/  7 1013.2R
SHEBOYGAN LAKESH 2200   26     330/ 10/ 12 1015.7R
PORT WASHINGTON  2140   27     320/  8/ 17 1015.6R
MILWAUKEE LAKESH 2150   27     320/  8/ 10   N/A
KENOSHA   LAKESH 2200   28     300/ 11/ 14 1014.9
$$

TC  - TEMPERATURE IN CELSIUS
VSB - VISIBILITY IN STATUTE MILES
WCI - WIND CHILL INDEX
HX  - HEAT INDEX





USA.gov is the U.S. government's official web portal to all federal, state and local government web resources and services.